Regional Weather Roundup
Issued by NWS

Home | Current Version | Previous Version | Graphics & Text | Print | Product List | Glossary On
Versions: 1 2 3 4 5 6 7 8 9 10 11 12 13 14 15 16 17 18 19 20 21 22 23 24 25 26 27 28 29 30 31 32 33 34 35 36 37 38 39 40 41 42 43 44 45 46 47 48
000
ASUS43 KDMX 092207
RWRIA

WEATHER ROUNDUP FOR IOWA
NATIONAL WEATHER SERVICE DES MOINES IA
500 PM CDT WED JUL 09 2014

NOTE: "FAIR" INDICATES FEW OR NO CLOUDS BELOW 12,000 FEET WITH NO
SIGNIFICANT WEATHER AND/OR OBSTRUCTIONS TO VISIBILITY.

* - THESE STATIONS ARE NOT NWS STATIONS...THUS NOT UNDER NWS
QUALITY CONTROL.  THEY ALSO DO NOT REPORT WEATHER SUCH
AS PRECIPITATION OR FOG.

IAZ001>003-012>014-020>022-031>034-043>046-092300-
   NORTHWEST IOWA

CITY           SKY/WX    TMP DP  RH WIND       PRES   REMARKS
CARROLL *      MOSUNNY   79  61  53 SW8       30.04S HX  80
CHEROKEE *     SUNNY     79  59  50 W6        30.01F HX  80
DENISON *      SUNNY     79  61  53 VRB3      30.02F HX  80
LE MARS *      PTSUNNY   81  61  50 S6        30.02S HX  81
ORANGE CITY *  SUNNY     81  57  44 W5        30.02S HX  81
SHELDON *      MOSUNNY   79  59  50 SW12      30.01S HX  80
SIOUX CITY     MOSUNNY   82  61  48 S6        30.01S HX  83
SPENCER        MOSUNNY   80  58  46 W10       30.01F HX  80
STORM LAKE *   SUNNY     79  61  53 W9        30.04S HX  80
$$

IAZ055>058-069>071-079>083-090>094-092300-
   SOUTHWEST IOWA

CITY           SKY/WX    TMP DP  RH WIND       PRES   REMARKS
ATLANTIC *     SUNNY     79  59  50 SW5       30.03F HX  80
AUDUBON *      SUNNY     82  64  54 W3        30.06S HX  84
CLARINDA *     SUNNY     81  61  50 VRB3      30.06S HX  81
COUNCIL BLFS * MOSUNNY   81  59  47 SW8       30.02F HX  81
CRESTON *      MOSUNNY   77  59  53 W9        30.06F
HARLAN  *      SUNNY     79  61  53 W6        30.07F HX  80
LAMONI         MOSUNNY   80  58  46 N6        30.06S HX  80
RED OAK *      MOSUNNY   79  61  53 S5        30.04F HX  80
SHENANDOAH *   MOSUNNY   81  59  47 CALM      30.04F HX  81
$$

IAZ047>049-059>061-072>074-084-092300-
   CENTRAL IOWA

CITY           SKY/WX    TMP DP  RH WIND       PRES   REMARKS
AMES           MOSUNNY   78  57  48 W8        30.03F
ANKENY *       SUNNY     79  57  47 VRB5      30.03F HX  80
CHARITON *     SUNNY     79  55  44 N7        30.05F
DES MOINES     MOSUNNY   81  56  42 W6        30.03F HX  81
GRINNELL*      PTSUNNY   75  57  53 W6        30.05F
KNOXVILLE *    MOSUNNY   79  55  44 N5        30.03F
MARSHALLTOWN   SUNNY     78  57  48 W8        30.03S
PELLA *        MOSUNNY   81  57  44 SW5       30.05F HX  81
PERRY *          N/A     79  59  50 W6        30.04F HX  80
$$

IAZ004>006-015-016-023>025-035-036-092300-
   NORTH CENTRAL IOWA

CITY           SKY/WX    TMP DP  RH WIND       PRES   REMARKS
ALGONA *       MOSUNNY   77  57  50 N5        30.02S
CLARION *      PTSUNNY   75  59  57 W5        30.02F
ESTHERVILLE    MOSUNNY   79  54  41 NW7       30.01S
FORT DODGE *   PTSUNNY   79  61  53 W13       30.03S HX  80
MASON CITY     MOSUNNY   78  55  44 W12       30.02F
FOREST CITY *  PTSUNNY   79  55  44 W3        30.01F
IOWA FALLS *   PTSUNNY   75  54  46 SW5       30.04S
$$

IAZ007>011-017>019-026>030-037>042-050>054-066-092300-
   NORTHEAST IOWA

CITY           SKY/WX    TMP DP  RH WIND       PRES   REMARKS
CEDAR RAPIDS   PTSUNNY   77  55  46 NW7       30.02S
CHARLES CITY * MOSUNNY   77  55  47 W8G15     30.02S
CLINTON *      MOSUNNY   75  55  50 NW10      30.04S
DECORAH *        N/A    N/A N/A N/A MISG        N/A
DUBUQUE        MOSUNNY   75  56  51 N10       30.03S
MONTICELLO *   SUNNY     77  55  47 NW8       30.02S
OELWEIN *      SUNNY     75 -35   1 NW6       30.03S
WATERLOO       SUNNY     79  53  40 W3        30.01S
$$

IAZ064-065-067-068-078-092300-
   EAST CENTRAL IOWA

CITY           SKY/WX    TMP DP  RH WIND       PRES   REMARKS
DAVENPORT      MOSUNNY   77  56  48 N7        30.02S
IOWA CITY      MOSUNNY   78  57  48 W9        30.03S
MT. PLEASANT * MOSUNNY   79  52  38 NW5       30.04R
MUSCATINE *    SUNNY     79  55  44 NW9       30.02S
QUAD CITIES    MOSUNNY   79  55  43 NW10      30.01R
$$

IAZ062-063-075>077-085>089-095>099-092300-
   SOUTHEAST IOWA

CITY           SKY/WX    TMP DP  RH WIND       PRES   REMARKS
BURLINGTON     PTSUNNY   79  55  43 N12       30.03R
FAIRFIELD *    PTSUNNY   77  57  50 VRB6G12   30.04S
FORT MADISON * MOSUNNY   79  55  44 NW8       30.04S
KEOKUK *       SUNNY     77  55  47 N9        30.03R
OSKALOOSA *      N/A     77  57  50 NW7       30.05S
CENTERVILLE *  SUNNY     77  59  53 N7        30.07S
OTTUMWA        MOSUNNY   79  57  46 N9        30.03S HX  80
WASHINGTON *   MOSUNNY   77  57  50 N8        30.04S
$$

ABBREVIATIONS USED IN REMARKS
   TC - TEMPERATURES IN CELSIUS
  WCI - WIND CHILL INDEX
   HX - HEAT INDEX
  VSB - VISIBILITY
$$



USA.gov is the U.S. government's official web portal to all federal, state and local government web resources and services.